Location: Berlise
(49.6641°N, 4.1077°E)
Time: 01:59:48
(UTC+00:00)

deb Chang Zheng 4 - Pass Details

Date: 27 January 2021
Orbit: 599 x 623 km, 98.6° (Epoch: 28 February)

Event Time Altitude Azimuth Distance (km) Brightness Sun altitude
Rises 05:44:00 0° 9° (N) 2,873 7.0 -15.9°
Reaches altitude 10° 05:46:15 10° 3° (N) 1,962 6.1 -15.5°
Maximum altitude 05:50:17 43° 292° (WNW) 849 3.8 -14.9°
Drops below altitude 10° 05:54:16 10° 221° (SW) 1,940 5.8 -14.2°
Sets 05:56:30 0° 214° (SW) 2,837 6.7 -13.9°
